COSMOS 1275 DEB, 12658

Orbit data source: Space-Track

COSMOS 1275 DEB, 12658 is space debris in LEO originally from a launch on Thu, 04 Jun 1981 UTC launched from the Plesetsk Missile And Space Complex (PKMTR). Debris objects in space refer to the collection of defunct objects orbiting the Earth. Examples of debris include non-operational satellites, rocket bodies, and fragments generated from explosions, collisions, or faulty payload assembly.

Loading next visibility...
Identifier
12658, 1981-053N
Orbit
LEO
Country
Flag of CISCIS
Related business
Manufacturer
Unknown
Mission
Spacecraft
Bus & Motor
Unknown
Mass
Unknown
Launch date (UTC)
1981-06-04 (45 years ago)
Launch vehicle
Unknown
Launch site
Plesetsk Missile And Space Complex (PKMTR)
Object type
Payload
Rocket body
Debris
Shape & HBR
Unknown shape, 0.2 m
Radar Cross Section
Small (<0.1 m²)

Expand to show TLE details & history
Last TLE update: 10 hours ago

TLE from 10 hours ago
0 COSMOS 1275 DEB
1 12658U 81053N   26119.22514419  .00003005  00000-0  11542-2 0  9999
2 12658  82.9697 181.8724 0033959 222.3751 196.9807 14.29883737283248
Epoch: 2026-04-29T05:24Z
TLE epoch observation values (Epoch: 2026-04-29T05:24:12.458Z)
Latitude
58.62316°
Longitude
-104.76463°
Altitude
825.347 km
Speed
7.434 km/s
True Right ascension
12h 53m 54s
True Declination
58° 28' 17"
Sunlit
Object was in daylight at epoch
Visualization orbit readout
Latitude
Unknown
Longitude
Unknown
Altitude
Unknown
Speed
Unknown
Apparent Right ascension
Unknown
Apparent Declination
Unknown
Sunlit
N/A
Visualization observer readout
Local Sidereal Time
23:08:48
Azimuth
Unknown
Elevation
Unknown
Doppler factor
Unknown
Orbital elements
Apogee altitude
813.531 km
Perigee altitude
764.852 km
Semi-major axis
7,167.329 km
Eccentricity
0.0034
Inclination
82.9697°
RAAN
181.8724°
Arg. of periapsis
222.3751°
True anomaly
196.86751°
Mean anomaly
196.9807°
Eccentric anomaly
196.92406°
Mean motion
3.5769 °/min
Orbital period
100.65 mins
BSTAR
0.0011542
Loading maneuver chart data...
Computing Atmospheric mass density...
Loading historical data...
Loading historical data...
Loading historical data...
Loading historical data...
Loading historical data...
Loading historical data...
Loading historical data...

Documentation

Showing up to 5 results
|